Deer Park, WA

6:48 AM PST on February 24, 2017 (GMT -0800)
Deer Park

Weather History for KDEW - October, 2013

Change the Weather History Date:

Monday, October 7, 2013

  Actual Average Record
Temperature  
Mean Temperature 45 °F 47 °F  
Max Temperature 61 °F 63 °F 80 °F (2014)
Min Temperature 29 °F 32 °F 22 °F (2012)
Degree Days  
Heating Degree Days 20 18  
Month to date heating degree days 144 115  
Since 1 July heating degree days 407 534  
Cooling Degree Days 0 0  
Month to date cooling degree days 0 0  
Year to date cooling degree days 310 187  
Moisture  
Dew Point 36 °F    
Average Humidity 70    
Maximum Humidity 100    
Minimum Humidity 39    
Precipitation  
Precipitation 0.18 in 0.04 in 0.70 in (2016)
Month to date precipitation 0.20 0.26  
Year to date precipitation 14.58 14.70  
Sea Level Pressure  
Sea Level Pressure 29.88 in    
Wind  
Wind Speed 8 mph (SW)    
Max Wind Speed 32 mph    
Max Gust Speed 44 mph    
Visibility 9 miles    
Events Rain , Thunderstorm    
T = Trace of Precipitation, MM = Missing Value Source: NWS Daily Summary

Daily Weather History Graph

Daily Weather History Graph

Search for Another Location

Airport or City:

Trip Planner

Search our weather history database for the weather conditions in past years. The results will help you decide how hot, cold, wet, or windy it might be!

Date:

Astronomy

Oct. 07, 2013 Rise Set
Actual Time 6:57 AM PDT 6:16 PM PDT
Civil Twilight 6:26 AM PDT 6:47 PM PDT
Nautical Twilight 5:50 AM PDT 7:22 PM PDT
Astronomical Twilight 5:14 AM PDT 7:59 PM PDT
Moon 10:07 AM PDT (10/7) 7:49 PM PDT (10/7)
Length of Visible Light 12h 20m
Length of Day
11h 18m
Waxing Crescent, 9% of the Moon is Illuminated
Oct 7
Waxing Crescent
Oct 11
First Quarter
Oct 18
Full
Oct 26
Last Quarter
Nov 3
New

Hourly Weather History & Observations

Time (PDT) Temp. Windchill Dew Point Humidity Pressure Visibility Wind Dir Wind Speed Gust Speed Precip Events Conditions
12:53 AM 32.0 °F 28.7 °F 30.0 °F 92% 29.97 in 10.0 mi NE 3.5 mph - N/A   Clear
1:53 AM 33.1 °F - 30.9 °F 92% 29.96 in 10.0 mi Calm Calm - N/A   Clear
2:53 AM 30.9 °F - 30.0 °F 96% 29.94 in 10.0 mi Calm Calm - N/A   Clear
3:53 AM 32.0 °F - 30.9 °F 96% 29.92 in 10.0 mi Calm Calm - N/A   Clear
4:53 AM 32.0 °F 28.7 °F 30.0 °F 92% 29.92 in 10.0 mi NNW 3.5 mph - N/A   Clear
5:53 AM 32.0 °F - 30.0 °F 92% 29.92 in 10.0 mi Calm Calm - N/A   Clear
6:53 AM 35.1 °F - 33.1 °F 92% 29.93 in 10.0 mi Calm Calm - N/A   Scattered Clouds
7:53 AM 39.0 °F - 37.0 °F 93% 29.93 in 10.0 mi Calm Calm - N/A   Mostly Cloudy
8:53 AM 44.1 °F 42.5 °F 37.9 °F 79% 29.92 in 10.0 mi SSE 3.5 mph - N/A   Overcast
9:53 AM 48.0 °F - 39.9 °F 74% 29.92 in 10.0 mi Calm Calm - N/A   Overcast
10:53 AM 53.1 °F - 39.0 °F 59% 29.90 in 10.0 mi Calm Calm - N/A   Overcast
11:53 AM 60.1 °F - 39.0 °F 46% 29.88 in 10.0 mi SW 12.7 mph 18.4 mph N/A   Overcast
12:53 PM 60.1 °F - 39.0 °F 46% 29.86 in 10.0 mi SSW 11.5 mph 20.7 mph N/A   Mostly Cloudy
1:53 PM 57.9 °F - 39.9 °F 51% 29.85 in 8.0 mi SW 17.3 mph - 0.00 in   Overcast
2:25 PM 57.2 °F - 46.4 °F 67% 29.82 in 10.0 mi West 15.0 mph 21.9 mph 0.06 in Thunderstorm Overcast
2:42 PM 51.8 °F - 42.8 °F 71% 29.82 in 1.8 mi WSW 16.1 mph 43.7 mph 0.18 in Rain , Thunderstorm Heavy Thunderstorms and Rain
2:50 PM 53.6 °F - 44.6 °F 72% 29.82 in 4.0 mi SW 8.1 mph - 0.18 in Rain , Thunderstorm Light Thunderstorms and Rain
2:53 PM 54.0 °F - 44.1 °F 69% 29.84 in 10.0 mi WSW 9.2 mph - 0.18 in Thunderstorm Thunderstorm
3:16 PM 57.2 °F - 44.6 °F 63% 29.80 in 10.0 mi SW 15.0 mph 18.4 mph N/A   Partly Cloudy
3:53 PM 60.1 °F - 39.9 °F 47% 29.82 in 10.0 mi WSW 13.8 mph 25.3 mph N/A   Partly Cloudy
4:53 PM 60.1 °F - 35.1 °F 39% 29.82 in 10.0 mi SW 20.7 mph 28.8 mph N/A   Partly Cloudy
5:53 PM 57.0 °F - 34.0 °F 42% 29.83 in 10.0 mi SSW 13.8 mph - N/A   Clear
6:53 PM 55.0 °F - 32.0 °F 42% 29.86 in 10.0 mi SW 13.8 mph - N/A   Mostly Cloudy
7:53 PM 52.0 °F - 28.9 °F 41% 29.87 in 10.0 mi SSW 11.5 mph - N/A   Scattered Clouds
8:53 PM 50.0 °F - 30.9 °F 48% 29.88 in 10.0 mi SSW 11.5 mph - N/A   Clear
9:53 PM 46.0 °F 41.0 °F 32.0 °F 58% 29.89 in 10.0 mi South 10.4 mph - N/A   Clear
10:53 PM 45.0 °F 40.6 °F 32.0 °F 60% 29.90 in 10.0 mi SSE 8.1 mph - N/A   Clear
11:53 PM 44.1 °F 38.6 °F 33.1 °F 65% 29.89 in 10.0 mi South 10.4 mph - N/A   Clear